MPEC 2001-N35: 2001 NH6

The following Minor Planet Electronic Circular may be linked-to from your own Web pages, but must not otherwise be redistributed electronically.


Read MPEC 2001-N34 Read MPEC 2001-N36


M.P.E.C. 2001-N35                                Issued 2001 July 15, 17:12 UT

     The Minor Planet Electronic Circulars contain information on unusual
         minor planets and routine data on comets.  They are published
   on behalf of Commission 20 of the International Astronomical Union by the
          Minor Planet Center, Smithsonian Astrophysical Observatory,
                          Cambridge, MA 02138, U.S.A.

             Prepared using the Tamkin Foundation Computer Network

                              MPC@CFA.HARVARD.EDU
          URL http://cfa-www.harvard.edu/iau/mpc.html  ISSN 1523-6714

                                   2001 NH6

Observations:
     K01N06H* C2001 07 10.21234 16 38 43.94 +11 08 33.1          19.8        644
     K01N06H  C2001 07 10.22235 16 38 41.77 +11 08 04.2          20.4        644
     K01N06H  C2001 07 10.23362 16 38 39.24 +11 07 31.5          20.1        644
     K01N06H  C2001 07 11.15690 16 35 23.77 +10 22 28.9          19.9 R      649
     K01N06H  C2001 07 11.16501 16 35 22.05 +10 22 04.1          19.5 R      649
     K01N06H  C2001 07 11.16942 16 35 21.14 +10 21 50.0          19.1 R      649
     K01N06H  C2001 07 12.17100 16 31 51.21 +09 31 47.2          20.6        644
     K01N06H  C2001 07 12.18209 16 31 48.78 +09 31 13.5          20.4        644
     K01N06H  C2001 07 12.19326 16 31 46.40 +09 30 38.8          21.0        644
     K01N06H 4C2001 07 12.25220 16 31 33.65 +09 27 42.5                      673
     K01N06H 4C2001 07 12.25972 16 31 32.07 +09 27 18.4                      673
     K01N06H FC2001 07 14.40340 16 24 10.13 +07 36 18.5          18.9 R      474
     K01N06H FC2001 07 14.40711 16 24 09.44 +07 36 07.1                      474
     K01N06H UC2001 07 14.40914 16 24 08.83 +07 35 57.7                      474
     K01N06H FC2001 07 14.41428 16 24 07.94 +07 35 42.8                      474
     K01N06H UC2001 07 14.41770 16 24 07.19 +07 35 30.8                      474
     K01N06H WC2001 07 14.89123 16 22 30.87 +07 09 48.7                      557
     K01N06H  C2001 07 14.89240 16 22 30.67 +07 09 45.9                      557
     K01N06H  C2001 07 14.89472 16 22 30.11 +07 09 36.8                      557
     K01N06H WC2001 07 15.27689 16 21 12.88 +06 49 08.4                      671
     K01N06H WC2001 07 15.28801 16 21 10.59 +06 48 30.9                      671
     K01N06H WC2001 07 15.29722 16 21 08.64 +06 48 01.6                      671

Observer details:
474 Mount John Observatory, Lake Tekapo.  Observer A. C. Gilmore.  1.0-m f/7.7
    reflector + CCD.
557 Ondrejov.  Observer L. Sarounova.  0.65-m f/3.6 reflector + CCD.
644 Palomar Mountain/NEAT.  Observers E. F. Helin, S. Pravdo, K. Lawrence,
    M. Hicks, E. Hovland, T. Bickler, J. Schroeder, L. Scherr, R. Thicksten,
    A. Deetz.  1.2-m Schmidt + CCD.
649 Powell Observatory, Louisburg.  Observer K. Smalley.  0.75-m Newtonian
    + CCD.
671 Stony Ridge.  Observers S. C. Brewster, S. Martin, P. Sable, M. O'Neal,
    T. A. Nichols II, J. E. Rogers.  0.76-m f/6 reflector + CCD.
673 Table Mountain Observatory, Wrightwood.  Observers M. Hicks, D. Esqueda,
    T. Ha.  0.6-m reflector + CCD.

Orbital elements:
2001 NH6
Epoch 2001 July 10.0 TT = JDT 2452100.5                 Williams
M 281.95350              (2000.0)            P               Q
n   0.71852616     Peri.  288.45342     +0.59834749     -0.60658099
a   1.2345471      Node   112.70548     +0.75863208     +0.63910783
e   0.4488987      Incl.   34.57371     -0.25779380     +0.47286433
P   1.37           H   19.2           G   0.15
From 22 observations 2001 July 10-15.

Ephemeris:
2001 NH6                 a,e,i = 1.23, 0.45, 35                  q = 0.6804
Date    TT    R. A. (2000) Decl.     Delta      r     Elong.  Phase     V
2001 07 10    16 39.49   +11 18.9    0.469    1.360   128.8    35.6    19.7
2001 07 20    16 05.96   +02 25.2    0.453    1.297   118.8    43.4    19.7
2001 07 30    15 38.09   -07 24.4    0.459    1.229   106.7    52.3    19.9
2001 08 09    15 16.33   -17 00.5    0.480    1.157    94.7    60.8    20.1
2001 08 19    14 59.15   -25 49.5    0.509    1.082    83.8    68.4    20.3
2001 08 29    14 44.06   -33 45.1    0.537    1.005    74.0    75.0    20.5
2001 09 08    14 27.55   -40 46.1    0.562    0.927    65.4    81.1    20.6

Gareth V. Williams           (C) Copyright 2001 MPC           M.P.E.C. 2001-N35

Read MPEC 2001-N34 Read MPEC 2001-N36


Our Web policy. Index to the CBAT/MPC/ICQ pages.

MPC